Stündliche Wetter Holyuny

Heute, 15 Juni, Dienstag

Zeit Temperatur Niederschläge Wind Luftdruck Luftfeuchtigkeit
00:00 +13°C° 0 mm 1 m/S 749 mmHg 83%
01:00 +13°C° 0 mm 1 m/S 749 mmHg 85%
02:00 +12°C° 0 mm 1 m/S 749 mmHg 87%
03:00 +13°C° 0 mm 1 m/S 748 mmHg 86%
04:00 +13°C° 0 mm 1 m/S 748 mmHg 85%
05:00 +14°C° 0 mm 1 m/S 748 mmHg 84%
06:00 +15°C° 0 mm 2 m/S 748 mmHg 74%
07:00 +17°C° 0 mm 2 m/S 748 mmHg 64%
08:00 +19°C° 0 mm 3 m/S 748 mmHg 55%
09:00 +20°C° 0 mm 3 m/S 748 mmHg 50%
10:00 +21°C° 0 mm 3 m/S 747 mmHg 45%
11:00 +22°C° 0 mm 4 m/S 747 mmHg 41%
12:00 +23°C° 0 mm 4 m/S 747 mmHg 43%
13:00 +23°C° 0 mm 4 m/S 747 mmHg 45%
14:00 +25°C° 0 mm 4 m/S 746 mmHg 46%
15:00 +22°C° 0 mm 3 m/S 746 mmHg 55%
16:00 +21°C° 0 mm 3 m/S 746 mmHg 64%
17:00 +20°C° 0 mm 3 m/S 746 mmHg 73%
18:00 +19°C° 0 mm 2 m/S 746 mmHg 78%
19:00 +18°C° 0 mm 2 m/S 746 mmHg 83%
20:00 +18°C° 0 mm 2 m/S 746 mmHg 88%
21:00 +16°C° 0 mm 2 m/S 746 mmHg 91%
22:00 +15°C° 0 mm 2 m/S 747 mmHg 93%
23:00 +14°C° 0 mm 2 m/S 747 mmHg 96%

Morgen, 16 Juni, Mittwoch

Zeit Temperatur Niederschläge Wind Luftdruck Luftfeuchtigkeit
00:00 +13°C° 0 mm 2 m/S 747 mmHg 95%
01:00 +12°C° 0 mm 2 m/S 748 mmHg 94%
02:00 +9°C° 0 mm 2 m/S 748 mmHg 94%
03:00 +9°C° 0 mm 2 m/S 749 mmHg 92%
04:00 +9°C° 0 mm 2 m/S 749 mmHg 91%
05:00 +9°C° 0 mm 2 m/S 749 mmHg 90%
06:00 +12°C° 0 mm 2 m/S 750 mmHg 80%
07:00 +14°C° 0 mm 2 m/S 750 mmHg 69%
08:00 +17°C° 0 mm 2 m/S 750 mmHg 59%
09:00 +18°C° 0 mm 2 m/S 750 mmHg 53%
10:00 +19°C° 0 mm 2 m/S 751 mmHg 47%
11:00 +21°C° 0 mm 2 m/S 751 mmHg 41%
12:00 +21°C° 0 mm 2 m/S 751 mmHg 39%
13:00 +23°C° 0 mm 2 m/S 751 mmHg 38%
14:00 +23°C° 0 mm 2 m/S 751 mmHg 37%
15:00 +23°C° 0 mm 2 m/S 751 mmHg 38%
16:00 +23°C° 0 mm 2 m/S 751 mmHg 39%
17:00 +23°C° 0 mm 2 m/S 751 mmHg 40%
18:00 +21°C° 0 mm 1 m/S 751 mmHg 50%
19:00 +20°C° 0 mm 1 m/S 752 mmHg 60%
20:00 +18°C° 0 mm 1 m/S 752 mmHg 70%
21:00 +15°C° 0 mm 1 m/S 752 mmHg 71%
22:00 +14°C° 0 mm 1 m/S 753 mmHg 73%
23:00 +12°C° 0 mm 0 m/S 753 mmHg 75%

übermorgen, 17 Juni, Donnerstag

Zeit Temperatur Niederschläge Wind Luftdruck Luftfeuchtigkeit
00:00 +12°C° 0 mm 0 m/S 753 mmHg 75%
01:00 +11°C° 0 mm 0 m/S 754 mmHg 76%
02:00 +11°C° 0 mm 0 m/S 754 mmHg 76%
03:00 +12°C° 0 mm 0 m/S 754 mmHg 76%
04:00 +12°C° 0 mm 0 m/S 754 mmHg 75%
05:00 +13°C° 0 mm 0 m/S 755 mmHg 75%
06:00 +15°C° 0 mm 0 m/S 755 mmHg 67%
07:00 +17°C° 0 mm 0 m/S 755 mmHg 59%
08:00 +20°C° 0 mm 0 m/S 755 mmHg 51%
09:00 +21°C° 0 mm 0 m/S 755 mmHg 46%
10:00 +23°C° 0 mm 0 m/S 756 mmHg 42%
11:00 +26°C° 0 mm 1 m/S 756 mmHg 37%
12:00 +27°C° 0 mm 1 m/S 756 mmHg 36%
13:00 +27°C° 0 mm 1 m/S 756 mmHg 35%
14:00 +28°C° 0 mm 1 m/S 755 mmHg 33%
15:00 +26°C° 0 mm 0 m/S 755 mmHg 34%
16:00 +25°C° 0 mm 0 m/S 755 mmHg 35%
17:00 +25°C° 0 mm 0 m/S 755 mmHg 36%
18:00 +23°C° 0 mm 0 m/S 755 mmHg 46%
19:00 +21°C° 0 mm 0 m/S 755 mmHg 56%
20:00 +21°C° 0 mm 1 m/S 755 mmHg 66%
21:00 +20°C° 0 mm 1 m/S 755 mmHg 70%
22:00 +18°C° 0 mm 1 m/S 755 mmHg 74%
23:00 +16°C° 0 mm 1 m/S 756 mmHg 79%

18 Juni, Freitag

Zeit Temperatur Niederschläge Wind Luftdruck Luftfeuchtigkeit
00:00 +16°C° 0 mm 1 m/S 756 mmHg 80%
01:00 +15°C° 0 mm 1 m/S 756 mmHg 82%
02:00 +15°C° 0 mm 1 m/S 756 mmHg 84%
03:00 +15°C° 0 mm 1 m/S 756 mmHg 84%
04:00 +16°C° 0 mm 1 m/S 756 mmHg 83%
05:00 +16°C° 0 mm 1 m/S 756 mmHg 82%
06:00 +18°C° 0 mm 2 m/S 756 mmHg 74%
07:00 +20°C° 0 mm 2 m/S 756 mmHg 67%
08:00 +24°C° 0 mm 2 m/S 756 mmHg 59%
09:00 +25°C° 0 mm 3 m/S 756 mmHg 53%
10:00 +26°C° 0 mm 3 m/S 756 mmHg 46%
11:00 +27°C° 0 mm 3 m/S 756 mmHg 40%
12:00 +28°C° 0 mm 3 m/S 756 mmHg 38%
13:00 +29°C° 0 mm 3 m/S 755 mmHg 37%
14:00 +29°C° 0 mm 4 m/S 755 mmHg 35%
15:00 +29°C° 0 mm 3 m/S 755 mmHg 38%
16:00 +29°C° 0 mm 3 m/S 755 mmHg 41%
17:00 +28°C° 0 mm 3 m/S 754 mmHg 44%
18:00 +26°C° 0 mm 3 m/S 754 mmHg 54%
19:00 +24°C° 0 mm 2 m/S 754 mmHg 65%
20:00 +21°C° 0 mm 2 m/S 754 mmHg 75%
21:00 +20°C° 0 mm 2 m/S 755 mmHg 80%
22:00 +19°C° 0 mm 2 m/S 755 mmHg 84%
23:00 +18°C° 0 mm 2 m/S 755 mmHg 89%

19 Juni, Samstag

Zeit Temperatur Niederschläge Wind Luftdruck Luftfeuchtigkeit
00:00 +17°C° 0 mm 2 m/S 755 mmHg 91%
01:00 +16°C° 0 mm 2 m/S 755 mmHg 93%
02:00 +16°C° 0 mm 2 m/S 755 mmHg 95%
03:00 +16°C° 0 mm 2 m/S 755 mmHg 92%
04:00 +16°C° 0 mm 2 m/S 755 mmHg 90%
05:00 +17°C° 0 mm 2 m/S 756 mmHg 87%
06:00 +19°C° 0 mm 2 m/S 756 mmHg 78%
07:00 +21°C° 0 mm 2 m/S 756 mmHg 70%
08:00 +24°C° 0 mm 3 m/S 756 mmHg 62%
09:00 +25°C° 0 mm 3 m/S 755 mmHg 56%
10:00 +27°C° 0 mm 3 m/S 755 mmHg 50%
11:00 +28°C° 0 mm 3 m/S 755 mmHg 44%
12:00 +29°C° 0 mm 3 m/S 755 mmHg 41%
13:00 +29°C° 0 mm 3 m/S 755 mmHg 39%
14:00 +30°C° 0 mm 4 m/S 754 mmHg 36%
15:00 +30°C° 0 mm 3 m/S 754 mmHg 39%
16:00 +30°C° 0 mm 3 m/S 754 mmHg 41%
17:00 +29°C° 0 mm 3 m/S 754 mmHg 43%
18:00 +27°C° 0 mm 3 m/S 754 mmHg 54%
19:00 +25°C° 0 mm 2 m/S 754 mmHg 65%
20:00 +23°C° 0 mm 2 m/S 754 mmHg 75%
21:00 +21°C° 0 mm 2 m/S 754 mmHg 81%
22:00 +20°C° 0 mm 2 m/S 754 mmHg 86%
23:00 +18°C° 0 mm 2 m/S 754 mmHg 91%

20 Juni, Sonntag

Zeit Temperatur Niederschläge Wind Luftdruck Luftfeuchtigkeit
00:00 +18°C° 0 mm 2 m/S 754 mmHg 93%
01:00 +17°C° 0 mm 2 m/S 754 mmHg 95%
02:00 +17°C° 0 mm 2 m/S 754 mmHg 96%
03:00 +17°C° 0 mm 2 m/S 754 mmHg 93%
04:00 +18°C° 0 mm 2 m/S 754 mmHg 90%
05:00 +18°C° 0 mm 2 m/S 754 mmHg 87%
06:00 +20°C° 0 mm 3 m/S 754 mmHg 79%
07:00 +22°C° 0 mm 3 m/S 754 mmHg 71%
08:00 +25°C° 0 mm 3 m/S 754 mmHg 62%
09:00 +26°C° 0 mm 3 m/S 754 mmHg 56%
10:00 +27°C° 0 mm 4 m/S 753 mmHg 50%
11:00 +29°C° 0 mm 4 m/S 753 mmHg 44%
12:00 +29°C° 0 mm 4 m/S 753 mmHg 42%
13:00 +30°C° 0 mm 4 m/S 753 mmHg 40%
14:00 +32°C° 0 mm 4 m/S 753 mmHg 37%
15:00 +30°C° 0 mm 4 m/S 752 mmHg 39%
16:00 +30°C° 0 mm 3 m/S 752 mmHg 42%
17:00 +30°C° 0 mm 3 m/S 752 mmHg 44%
18:00 +28°C° 0 mm 3 m/S 752 mmHg 53%
19:00 +26°C° 0 mm 2 m/S 752 mmHg 63%
20:00 +24°C° 0 mm 2 m/S 752 mmHg 72%
21:00 +23°C° 0 mm 2 m/S 752 mmHg 77%
22:00 +21°C° 0 mm 2 m/S 752 mmHg 81%
23:00 +19°C° 0 mm 2 m/S 752 mmHg 86%
Mehr zeigen

Wir brauchen deine Erlaubnis

Meteoprog und unser Service Anbieter werden persönliche Daten aufbewahren, so wie Cookies, Geräte Bezeichnung oder ähnliche Technologien von deinem Gerät und Prozess, so wie Persönliche Daten Inhalte und Werbungen, genauso wie social Media und den Verkehr zu analysieren.

  • Aufbewahrung und/oder Zugang zu deiner Geräte Informationen.

    Cookies, Geräte Bezeichnung oder andere Informationen, können aufbewahrt oder Zugang zu deinem Gerät erhalten, für den Grund, der oben angegeben wird.

  • Personalisierte Werbung und Inhalte, Messungen, Einblick in das Publikum und Produkt Entwicklung.

    Werbungen und Inhalte können personalisiert werden, basierend auf ein Profil. Mehr Daten können besser personalisierte Werbungen und Inhalte hinzufügen. Werbung und Inhalte können gezeigt und gemessen werden. Einblicke über das Publikum, welche die Werbung gesehen haben und den Inhalt, können abgeleitet werden. So wie Daten können genutzt werden, um es zu verbessern oder die Benutzer Erfahrung zu verbessern das System und die Software.

Wenn du “Ich stimme zu” klickst, erlaubst du uns, die Cookies zu benutzen die Geräte Bezeichnung, den Web oder ähnliche Technologien zu benutzen. Deine Settings, können in deinem Gerät bei deinem Browser geändert werden.

Für den bestimmten Zweck, berechtigten Interessen beruhen darauf, mehr als auf den Inhalt. Du kannst mehr darüber in unseren Privaten und Cookie Politik lesen.